Regional Weather Roundup
Issued by NWS

Home | Current Version | Previous Version | Text Only | Print | Product List | Glossary Off
Versions: 1 2 3 4 5 6 7 8 9 10 11 12 13 14 15 16 17 18 19 20 21 22 23 24 25 26 27 28 29 30 31 32 33 34 35 36 37 38 39 40 41 42 43 44 45 46 47 48 49 50

000
ASUS43 KLOT 150200
RWRIL

ILLINOIS REGIONAL WEATHER ROUNDUP
NATIONAL WEATHER SERVICE CHICAGO/ROMEOVILLE IL
900 PM CDT SUN SEP 14 2014

NOTE: "FAIR" INDICATES FEW OR NO CLOUDS BELOW 12,000 FEET WITH NO
SIGNIFICANT WEATHER AND/OR OBSTRUCTIONS TO VISIBILITY.

* THESE STATIONS ARE NOT UNDER NWS QUALITY CONTROL. THEY ALSO MAY NOT
  REPORT WEATHER SUCH AS PRECIPITATION OR FOG.

ILZ001-002-007-009-015-016-024-150300-
NORTHWEST ILLINOIS

CITY           SKY/WX    TMP DP  RH WIND       PRES   REMARKS
MOLINE         PTCLDY    55  51  86 CALM      30.16S
STERLING*      CLEAR     54  46  76 CALM      30.16S
$$

ILZ003-004-008-010-011-017-018-150300-
NORTH CENTRAL ILLINOIS

CITY           SKY/WX    TMP DP  RH WIND       PRES   REMARKS
ROCKFORD       PTCLDY    54  48  80 CALM      30.20R
FREEPORT*      CLEAR     48  46  91 CALM      30.19S
ROCHELLE*      CLEAR     50  46  86 S7        30.18R
$$

ILZ005-006-012>014-019>023-150300-
NORTHEAST ILLINOIS

CITY           SKY/WX    TMP DP  RH WIND       PRES   REMARKS
CHICAGO-OHARE  PTCLDY    55  47  74 CALM      30.17S
CHICAGO-MIDWAY PTCLDY    62  44  51 S3        30.18R
AURORA         CLEAR     52  45  77 CALM      30.18R
LANSING*       CLEAR     55  47  76 CALM      30.19S
WAUKEGAN       MOCLDY    53  47  79 CALM      30.16S
DUPAGE AIRPORT CLEAR     52  47  83 CALM      30.17S
WHEELING       PTCLDY    55  47  74 CALM      30.19S
NORTHERLY ISL    N/A     61  42  49 S2          N/A
$$

LMZ740>746-150300-
SOUTHERN LAKE MICHIGAN

STATION/POSITION SKY/WX   TEMP    WIND        PRES    VSBY  WAVE
                          AIR SEA DIR/SP/G                  HT/PER
                          (F)     (DEG/KT/KT) (MB)    (MI)  (FT/S)
SOUTHERN BUOY              61 65  190/ 12/ 14 1021.9F         1/ 3
WAUKEGAN HARBOR            61     210/  6/  7   N/A
HARRISON CRIB              63     200/  8/  9   N/A
BURNHAM HARBOR             61     190/  1/  8   N/A
CALUMET HARBOR             60     170/  1/  2 1020.7F
MICHIGAN CITY              61     160/  5/  6   N/A
MICHIGAN CITY 6N           62 64  180/  6/  8   N/A           1
ST. JOSEPH                 62 67  150/  6/  8   N/A           1
$$

ILZ025>027-034>036-040-047-049-050-058-095>099-150300-
WEST-CENTRAL ILLINOIS

CITY           SKY/WX    TMP DP  RH WIND       PRES   REMARKS
QUINCY         CLEAR     56  49  77 SE6       30.17R
GALESBURG*     PTCLDY    57  48  72 SE5       30.17R
MACOMB*        CLEAR     52  49  89 S3        30.19S
$$

ILZ028>032-037-038-041>044-048-051>054-059>061-150300-
CENTRAL ILLINOIS

CITY           SKY/WX    TMP DP  RH WIND       PRES   REMARKS
DECATUR        CLEAR     57  47  69 S5        30.20S
PEORIA         CLEAR     56  49  77 CALM      30.18R
SPRINGFIELD    CLEAR     56  51  84 SE3       30.19R
TAYLORVILLE    NOT AVBL
$$

ILZ033-039-045-046-055>057-062-063-150300-
EAST-CENTRAL ILLINOIS

CITY           SKY/WX    TMP DP  RH WIND       PRES   REMARKS
CHAMPAIGN      CLEAR     54  45  71 S7        30.20R
MATTOON        CLEAR     56  50  80 CALM      30.20R
$$

ILZ079-100>102-150300-
SOUTHWEST ILLINOIS

CITY           SKY/WX    TMP DP  RH WIND       PRES   REMARKS
CAHOKIA*       CLEAR     59  51  75 S3        30.19R
SPARTA*        CLEAR     55  50  83 CALM      30.21S
$$

ILZ064>066-069>071-074>076-080>082-084>086-088>090-092>094-150300-
SOUTH-CENTRAL ILLINOIS

CITY           SKY/WX    TMP DP  RH WIND       PRES   REMARKS
CARBONDALE     CLEAR     53  51  93 SE3       30.20R
MT. VERNON     CLEAR     52  48  87 CALM      30.21S
$$

ILZ067-068-072-073-078-083-087-091-150300-
SOUTHEAST ILLINOIS

CITY           SKY/WX    TMP DP  RH WIND       PRES   REMARKS
LAWRENCEVILLE  CLEAR     53  50  89 SE3       30.21S
HARRISBURG*    CLEAR     56  55  94 CALM      30.22S
ROBINSON*      CLEAR     51  50  95 SE3       30.21S
$$

ABBREVIATIONS USED IN REMARKS
   TC - TEMPERATURE IN CELSIUS
  WCI - WIND CHILL INDEX
   HX - HEAT INDEX
  VSB - VISIBILITY
$$



USA.gov is the U.S. government's official web portal to all federal, state and local government web resources and services.